GFSMA_con_lsi_003.txt.gz
Lid_Strength_Index
-2 -2 -2 -1 -1 -1 -1 -1 -1 -0 0 1 1 1 2 2 1 1 0 -1 -1 -2 -2 -2 -2 -2 -2 -2 -2 -2 -2 -2 -2 -2 -2 -2 -1 -2 -2 -2 -2 -1 -1
-1 0 1 1 1 1 1 0 1 2 2 2 2 1 2 2 2 0 0 -1 1 0 -1 -1 -2 -2 -2 -2 -2 -2 -2 -2 -2 -2 -2 -2 -2 -2 -2 -2 -2 -2 -1
1 2 1 2 2 2 1 2 2 1 2 3 3 3 3 2 2 0 1 1 1 2 1 1 1 1 0 -0 -1 -2 -2 -2 -2 -2 -2 -2 -2 -1 -1 -2 -2 -2 -2
1 2 2 2 3 3 2 2 2 2 3 3 4 3 3 3 0 1 2 2 2 2 2 3 3 3 2 1 1 0 -0 -1 -2 -2 -2 -2 -2 -2 -2 -2 -2 -2 -2
3 2 2 3 3 3 2 3 3 3 4 4 5 4 4 3 1 1 2 2 2 2 3 3 4 4 4 3 2 1 1 0 -1 -2 -2 -2 -2 -2 -2 -1 -2 -2 -2
2 2 3 2 2 2 3 3 4 4 4 4 5 5 4 2 0 1 2 2 2 2 3 3 3 4 4 4 4 3 1 1 0 -0 -2 -2 -2 -2 -2 -1 -2 -1 -1
3 2 2 2 2 3 3 3 4 5 4 4 5 5 4 2 1 1 2 3 3 3 3 3 4 4 4 4 4 3 3 2 1 1 1 -1 -2 -2 -2 -2 -2 -1 -1
3 3 2 2 2 3 3 3 4 5 4 3 6 6 8 6 4 3 3 4 3 3 3 3 3 4 4 4 4 4 4 3 2 1 1 1 -0 -2 -2 -2 -1 -1 -1
3 2 2 2 2 2 2 3 4 5 6 4 4 7 9 9 7 5 5 4 4 4 4 3 3 3 3 3 3 4 5 4 4 2 1 0 0 -1 -2 -2 -2 -2 -1
2 3 3 3 2 2 3 4 4 5 6 7 6 6 6 7 9 10 7 6 5 5 4 4 4 3 2 2 2 2 3 4 4 3 1 0 -0 -0 -2 -2 -2 -1 -1
3 4 3 3 3 4 4 4 5 6 6 7 8 7 7 7 7 8 10 8 6 4 4 4 3 2 2 2 2 2 2 3 3 3 1 0 -0 -1 -2 -2 -2 -1 -1
4 3 4 4 4 4 4 5 6 6 7 7 7 7 7 8 8 7 7 6 6 4 3 2 2 2 2 1 1 2 2 2 2 1 0 0 -0 -1 -0 -1 -1 -1 -1
5 4 4 4 4 5 6 5 6 6 6 6 6 6 5 5 4 4 5 5 6 4 4 3 2 2 2 1 -1 -0 1 1 1 0 -0 0 0 -0 -0 -0 0 -1 -1
6 5 4 5 5 5 5 5 5 6 5 5 4 4 3 3 2 2 4 4 6 6 5 4 3 2 1 1 1 -0 -1 0 0 -0 -0 0 0 -0 -1 1 1 2 1
6 5 5 5 5 5 5 5 5 5 4 3 3 2 2 2 2 2 3 3 5 8 7 5 5 3 3 2 1 0 -1 0 0 -1 -1 0 1 1 -0 0 1 2 3
5 5 5 5 5 5 5 5 4 4 3 2 2 2 2 3 3 2 3 3 4 6 9 6 5 4 3 3 2 1 -0 0 1 0 0 -0 0 1 0 0 0 1 2
6 6 6 5 5 5 5 4 3 3 3 2 2 3 3 3 3 3 4 4 5 5 7 6 5 4 3 3 2 1 0 0 1 1 1 0 0 0 1 1 2 2 1
7 7 6 6 5 5 4 3 3 2 2 3 3 3 4 4 4 4 4 5 5 5 6 8 5 5 4 2 2 1 0 1 1 1 2 2 1 0 1 1 2 2 2
7 6 6 6 5 4 4 3 3 3 3 3 4 4 4 4 5 4 5 6 6 6 6 7 7 5 5 3 3 2 1 0 2 2 2 2 2 1 0 1 1 2 2
6 6 6 5 4 4 4 3 3 3 4 4 4 4 4 5 5 5 6 6 6 7 7 8 8 7 6 4 3 3 3 1 2 3 3 3 3 2 1 0 0 1 2
5 6 5 6 5 4 4 4 4 4 4 4 5 5 5 6 6 6 7 7 7 8 8 8 9 8 6 5 5 4 3 3 2 2 2 2 2 2 2 0 0 0 1
5 6 5 5 5 5 4 4 4 5 6 7 7 7 7 7 7 8 7 7 7 8 8 9 8 8 7 5 4 4 5 4 5 1 2 3 2 3 3 2 2 1 1
4 4 5 5 4 4 5 5 6 6 7 8 8 8 8 8 8 8 7 7 7 7 7 7 8 7 6 4 4 4 4 5 5 3 3 4 2 4 3 4 3 2 2
4 4 5 5 4 5 6 6 7 6 7 8 8 8 8 8 8 8 7 8 8 8 7 7 6 5 4 3 4 3 3 3 3 3 3 6 3 4 3 3 3 3 2
4 4 5 5 6 6 7 7 7 7 8 8 8 8 8 8 8 7 8 9 9 8 7 7 5 5 4 4 3 3 4 5 5 5 3 5 4 4 4 3 2 4 3
6 5 6 6 8 7 8 8 8 7 8 8 8 8 9 9 8 8 8 9 10 8 8 8 6 5 4 4 4 3 4 6 5 6 4 6 5 5 6 3 3 2 2

GFSMA_con_lsi_006.txt.gz
Lid_Strength_Index
-1 -1 -2 -2 -2 -2 -2 -1 -1 -0 0 0 -0 0 1 0 -0 -1 -1 -1 -1 -2 -2 -2 -2 -2 -2 -2 -2 -2 -2 -2 -2 -2 -2 -2 -2 -2 -2 -2 -2 -1 -1
-1 -1 -1 -1 -1 -1 -1 -0 1 1 1 1 1 0 0 0 0 -0 -0 -1 1 0 -0 -0 -1 -1 -1 -1 -1 -1 -2 -2 -2 -2 -2 -2 -2 -2 -2 -2 -2 -2 -2
-1 -1 0 -1 -1 -0 0 1 1 1 1 1 1 1 1 1 1 -0 0 0 1 2 2 2 2 1 1 1 1 0 -0 -1 -2 -2 -2 -2 -2 -2 -2 -2 -2 -2 -2
0 -0 0 1 2 2 1 1 1 1 1 1 2 2 1 1 2 -0 0 0 1 1 2 3 3 3 3 2 2 1 1 0 -0 -1 -2 -2 -2 -2 -2 -2 -2 -2 -2
1 -0 0 0 0 1 1 1 1 2 2 2 2 3 2 2 2 2 1 1 1 1 1 2 2 4 4 3 3 2 2 1 1 0 -0 -1 -2 -2 -2 -2 -2 -2 -2
0 -1 -0 0 0 1 1 1 2 2 2 2 3 3 2 2 2 1 1 1 1 1 1 1 2 2 2 3 3 3 2 2 2 1 0 0 -0 -1 -2 -2 -2 -1 -1
1 0 0 1 1 1 1 1 2 2 3 2 4 4 4 3 2 2 1 2 2 2 2 2 3 3 3 3 3 3 2 2 3 3 2 1 1 0 -1 -2 -2 -1 -1
1 1 1 1 1 1 1 1 2 3 3 3 5 6 7 6 4 3 3 3 3 3 4 4 4 4 4 4 4 4 3 3 3 3 3 3 1 0 -0 -1 -2 -2 -2
1 1 1 1 1 1 2 2 3 4 5 4 4 6 8 9 7 5 4 5 4 5 4 5 5 5 5 4 4 4 4 5 4 4 4 3 2 1 0 -1 -2 -2 -2
1 1 1 1 2 2 2 3 3 4 5 6 5 5 5 6 9 9 6 5 5 5 5 5 4 4 4 4 3 3 3 5 5 5 4 4 3 2 1 -0 -1 -2 -2
2 2 2 2 2 3 2 2 3 4 5 5 6 6 6 6 7 8 10 8 5 4 4 3 2 1 1 1 2 2 2 3 3 4 4 3 2 2 1 0 -0 -2 -2
5 4 4 3 2 2 2 3 3 5 5 6 6 6 7 8 8 7 7 6 5 3 2 2 2 1 1 1 1 0 -1 0 1 2 2 1 1 1 0 -1 -2 -2 -2
6 5 4 4 3 2 3 4 4 5 5 6 6 6 6 5 4 4 4 5 5 4 3 1 1 1 1 0 -0 -0 0 0 0 0 0 0 1 0 0 -1 -1 -1 -2
5 4 3 3 3 3 4 4 3 4 5 5 5 5 4 3 2 3 3 4 5 5 3 2 1 1 1 1 1 1 1 -1 0 0 0 -1 -0 0 -0 -0 -0 0 -0
5 4 3 3 4 4 4 3 4 4 4 4 3 2 2 2 2 2 2 3 4 6 6 4 4 2 2 2 2 1 1 1 0 1 1 -0 -1 -0 0 -0 -0 0 1
5 4 4 4 5 4 4 4 4 4 3 2 2 2 2 2 2 2 2 2 3 4 7 4 4 3 2 2 1 1 1 0 0 1 1 -0 -0 -0 0 -0 -0 -0 -0
6 5 4 4 4 4 4 4 4 3 3 2 1 1 2 2 2 2 2 3 3 4 6 5 4 3 3 3 2 1 0 0 -1 1 1 1 1 0 0 -0 -0 0 1
5 5 5 4 4 4 4 4 3 3 2 2 2 2 2 2 2 2 3 3 3 3 5 6 5 5 4 3 3 2 2 1 -1 -0 1 1 1 1 0 0 0 0 1
5 5 4 5 5 4 4 3 3 2 2 2 2 2 2 3 3 3 3 4 4 5 4 5 6 5 5 4 4 3 3 1 0 0 1 1 2 1 1 0 -0 0 1
5 5 4 4 4 4 3 3 2 2 2 2 2 2 3 3 4 4 5 5 5 6 5 6 7 7 6 5 4 5 3 2 1 0 1 2 2 2 1 1 0 -0 0
5 4 5 5 4 3 4 3 2 2 2 3 3 4 4 5 7 6 6 6 6 7 7 8 8 7 7 7 6 4 4 3 2 0 1 2 1 1 0 0 1 0 0
5 4 4 3 3 4 6 6 5 3 3 4 5 5 5 6 6 7 7 7 7 7 8 8 8 8 8 6 4 4 4 4 5 1 1 2 1 2 1 1 2 2 2
5 5 3 3 3 3 6 6 6 4 4 4 5 6 6 6 6 6 7 7 6 6 7 7 8 8 7 5 5 4 4 4 4 2 3 4 2 2 1 2 3 2 2
5 5 4 3 3 4 7 7 7 4 4 5 5 6 6 6 6 7 7 7 6 6 6 7 6 6 5 4 4 4 3 3 2 2 2 5 2 3 2 2 2 3 3
5 4 3 3 3 4 7 7 7 4 5 6 6 6 7 7 7 8 8 8 7 7 6 6 6 6 6 5 4 4 4 4 4 3 2 3 3 3 3 2 2 3 4
4 4 4 3 6 4 8 8 7 5 6 6 6 7 8 8 9 8 8 8 8 8 8 8 7 7 6 5 4 3 4 5 5 4 2 4 4 4 5 2 2 1 2

GFSMA_con_lsi_009.txt.gz
Lid_Strength_Index
-1 -1 -1 -2 -2 -2 -2 -1 -1 -0 1 1 1 1 1 0 0 0 -1 -2 -2 -2 -2 -2 -2 -2 -2 -2 -2 -2 -2 -2 -2 -2 -2 -2 -2 -2 -2 -2 -2 -2 -1
-2 -1 -1 -1 -1 -2 -1 -0 1 1 2 1 1 0 1 1 1 0 -0 -1 -1 -1 -0 -0 -0 -1 -1 -0 -0 -1 -1 -1 -2 -2 -2 -2 -2 -2 -2 -2 -2 -2 -2
-1 -1 -1 -1 -1 -0 1 0 1 1 2 2 1 1 1 0 1 1 0 -0 -0 0 1 1 1 1 1 1 1 1 0 0 -0 -1 -1 -2 -2 -2 -2 -2 -2 -2 -2
-0 -1 -1 0 0 -0 0 0 1 1 1 2 2 1 1 1 1 1 1 1 0 1 1 2 3 3 3 3 2 2 1 1 1 0 -0 -1 -1 -1 -2 -2 -2 -2 -2
-1 -1 -1 -1 -1 -1 -0 0 0 1 1 1 1 2 1 1 1 2 2 1 0 1 2 1 1 1 4 3 3 2 2 2 2 2 1 1 0 -0 -1 -1 -2 -2 -2
-1 -1 -1 -1 -0 0 0 0 1 1 1 2 3 3 2 3 3 3 2 2 2 2 2 2 3 3 2 3 3 3 2 2 2 2 2 2 2 1 0 -0 -0 -1 -2
0 -0 -0 -0 -0 0 0 0 1 1 2 2 4 4 4 3 2 3 3 2 2 3 3 3 3 4 4 3 4 3 3 3 3 2 3 3 3 2 2 1 -0 -1 -2
-0 -0 -0 0 0 1 1 1 1 3 3 3 5 5 7 6 5 4 4 4 2 4 4 4 4 5 5 5 5 4 4 4 4 4 4 4 3 3 2 2 1 -0 -1
0 0 0 1 1 1 3 2 2 3 5 4 4 6 8 9 7 5 5 4 3 4 4 4 5 5 5 5 5 5 4 5 5 4 4 4 4 3 3 2 1 1 -0
1 2 2 2 2 2 2 2 3 3 4 6 5 5 5 6 8 9 6 6 5 5 4 4 5 5 5 5 4 4 5 5 5 5 4 4 4 3 3 2 1 1 0
4 4 4 3 3 3 2 2 3 3 4 5 5 6 6 6 6 8 10 8 6 5 4 3 3 3 2 2 2 2 2 2 4 3 3 4 3 3 3 2 2 1 1
5 4 4 4 3 3 3 3 3 4 4 5 5 5 7 7 8 8 8 7 6 4 3 2 1 1 1 1 1 -0 0 1 2 2 2 2 1 1 2 2 1 0 -0
5 4 4 3 4 3 3 3 4 4 4 5 5 6 6 6 5 5 5 6 5 3 3 1 0 0 1 0 1 0 1 1 1 1 1 1 0 -0 1 1 1 0 -0
5 4 4 3 3 3 4 3 4 4 3 4 5 5 5 4 4 3 4 4 5 4 3 3 1 1 1 1 1 1 2 1 1 0 0 1 -0 -1 -0 0 0 0 -1
5 5 4 4 3 3 3 3 3 4 4 4 4 4 4 3 2 2 2 2 4 6 6 3 3 1 1 1 1 1 1 1 1 1 1 1 -0 -1 -0 0 0 0 -1
5 5 5 4 4 4 3 3 4 3 4 4 4 3 3 2 2 2 2 2 2 4 6 4 3 2 2 2 2 2 2 1 1 1 2 2 1 1 0 -0 -0 -1 -0
5 5 5 5 4 4 4 4 4 4 4 4 3 3 2 2 2 2 2 2 3 3 5 4 3 2 3 3 3 2 2 1 1 1 1 1 1 1 1 0 0 -0 -0
5 5 5 5 4 4 4 5 5 4 4 3 2 2 2 2 2 2 2 3 3 3 4 6 4 4 4 4 3 3 3 2 1 1 1 1 1 1 1 1 0 0 -0
6 5 5 5 5 4 5 5 4 4 3 2 2 2 2 2 3 3 3 4 4 5 4 5 6 5 4 4 4 4 4 3 2 1 1 1 1 1 1 0 -0 -0 -0
6 5 5 5 5 5 5 5 4 3 2 2 1 2 2 3 4 5 5 5 5 6 6 6 7 6 6 5 4 5 5 3 3 2 1 1 1 0 0 0 0 0 0
5 5 5 5 4 5 5 5 3 3 3 3 2 3 3 4 6 6 7 6 6 7 7 8 8 7 7 6 7 6 6 5 3 2 1 0 1 1 -0 -0 -0 1 2
6 5 5 5 5 5 8 8 7 4 3 3 3 3 4 4 5 6 6 6 6 8 8 8 8 8 8 7 6 6 6 6 6 1 2 2 -0 1 1 0 1 2 3
5 5 5 5 5 5 8 8 8 5 3 3 4 4 5 5 5 5 6 6 6 6 6 6 7 7 7 6 7 6 6 5 5 2 2 3 1 2 1 1 1 1 2
6 6 6 5 5 7 8 8 7 4 3 3 4 4 5 5 6 7 8 7 7 6 5 6 6 7 7 6 6 6 6 5 3 2 1 4 1 2 1 1 1 2 2
6 6 5 6 5 6 8 8 7 4 4 4 4 4 5 6 7 8 8 8 8 7 5 5 6 6 6 6 6 6 6 6 5 4 2 2 2 2 1 2 0 2 2
6 6 5 5 8 5 8 8 7 4 5 5 5 5 7 8 8 9 8 8 9 7 8 8 7 7 6 6 5 5 5 6 5 5 2 3 2 3 5 2 1 0 1

GFSMA_con_lsi_012.txt.gz
Lid_Strength_Index
-0 -0 -0 -0 -0 -1 -1 1 2 2 2 2 2 2 3 3 3 3 3 -1 -2 -1 -1 -2 -2 -2 -2 -1 -1 -1 -1 -2 -2 -2 -2 -2 -2 -2 -2 -2 -2 -2 -2
-0 0 -0 1 0 1 1 2 2 2 2 2 2 2 2 3 3 2 3 1 -1 -2 -1 -1 -1 -0 -0 -0 -0 -0 -0 -0 -1 -1 -1 -2 -1 -1 -2 -2 -2 -2 -2
1 1 1 0 -0 -0 1 2 2 2 2 2 2 2 2 3 3 2 2 3 1 -1 -1 0 1 1 1 1 1 1 1 1 0 0 0 -0 -1 -1 -1 -1 -1 -2 -2
-0 -0 0 0 0 0 1 1 1 2 2 3 3 3 3 3 3 3 2 3 3 2 1 1 2 2 3 2 2 2 2 2 2 1 1 1 1 1 0 -0 -1 -1 -2
-0 0 0 -0 0 1 1 1 2 2 3 3 3 4 4 5 4 4 4 4 3 2 3 0 0 1 2 3 3 3 2 2 2 2 2 2 2 2 2 1 1 -0 -1
-0 1 0 1 1 1 2 2 2 2 3 3 4 5 5 5 5 5 5 4 4 4 4 4 4 5 2 3 3 3 2 2 2 2 2 2 2 3 3 2 2 1 0
1 1 1 1 1 2 2 2 3 3 4 4 6 6 6 6 6 6 6 6 6 5 4 4 6 7 6 4 4 4 3 3 3 3 4 4 3 3 3 3 3 2 1
1 2 2 2 2 2 2 3 4 5 5 5 7 8 10 9 7 6 7 6 7 6 5 6 6 6 7 7 7 4 4 4 4 5 5 5 4 4 3 3 3 3 2
2 3 3 3 3 3 4 4 4 5 6 6 6 8 10 11 10 8 8 8 8 7 7 6 7 7 7 8 7 6 5 6 6 5 5 5 5 4 4 3 3 3 2
5 6 5 5 5 4 4 4 4 5 5 7 7 6 8 9 11 12 10 9 8 8 8 7 7 6 6 6 4 3 4 4 6 5 5 5 5 4 4 3 3 3 2
5 5 5 5 5 5 5 4 4 5 5 6 7 8 8 8 9 11 12 11 9 7 6 6 6 5 4 4 4 3 1 3 4 4 4 4 4 4 4 3 3 3 2
6 5 5 5 4 4 4 4 5 5 6 6 6 6 8 9 10 10 11 10 10 8 6 5 5 4 3 3 2 -0 1 1 2 2 2 2 2 2 3 3 3 3 2
7 6 6 5 5 4 4 5 5 5 5 6 6 7 7 7 7 8 8 9 9 7 6 4 3 3 2 3 3 0 1 1 1 1 1 2 2 2 2 1 2 2 2
7 6 6 5 5 4 5 5 5 5 5 5 7 6 7 6 7 6 7 8 9 7 6 6 4 4 3 3 2 0 3 1 1 1 1 2 2 2 1 0 0 1 1
6 6 6 6 5 5 5 5 5 5 6 5 7 6 7 6 6 6 6 5 7 9 8 6 5 4 3 4 3 4 4 2 2 2 2 1 1 1 1 0 1 0 -0
6 6 6 7 6 5 5 5 5 5 6 6 6 6 6 5 5 4 5 4 5 6 9 6 5 5 4 4 3 4 4 2 2 2 2 1 1 2 2 1 1 1 0
6 7 7 7 6 6 6 6 6 6 6 7 6 7 5 4 5 4 4 4 5 5 8 7 5 5 6 5 5 4 4 5 4 2 1 1 1 1 1 1 1 1 0
6 7 7 6 6 6 6 6 7 7 7 7 6 6 5 3 4 4 5 6 6 6 7 9 7 7 7 6 6 6 5 4 4 2 1 1 1 1 1 1 1 0 0
7 7 7 6 6 6 6 6 7 7 7 7 6 6 4 5 6 6 7 7 7 6 7 8 9 7 7 6 7 6 5 5 3 2 2 1 1 1 0 1 0 0 0
7 7 7 6 6 7 7 7 7 8 7 6 5 5 5 6 7 8 8 9 8 9 9 9 9 9 8 7 7 7 8 6 6 4 3 2 2 2 1 1 1 1 1
7 7 7 6 6 7 7 9 8 8 8 8 6 5 5 5 5 7 8 9 9 10 10 10 10 9 9 9 9 8 8 7 7 6 5 5 3 3 2 1 1 1 2
7 8 8 7 7 6 9 10 9 10 8 7 7 6 6 5 5 6 5 5 7 10 10 10 10 10 9 9 7 8 9 9 10 6 6 6 3 2 1 0 1 2 2
7 7 7 8 8 9 9 9 10 10 8 7 6 7 6 5 6 8 7 7 7 6 6 8 9 8 8 9 8 10 10 10 10 7 7 7 4 3 1 1 0 1 1
7 8 7 7 7 9 9 9 9 10 8 7 7 7 7 8 9 9 9 10 9 9 8 7 9 9 8 8 8 8 9 9 8 7 6 8 4 4 3 2 0 0 1
7 7 6 7 8 10 8 8 9 9 7 7 6 6 7 8 8 8 9 10 10 9 6 7 7 6 6 5 6 7 10 9 10 8 6 6 5 4 5 5 4 1 1
6 6 7 7 8 9 7 8 9 9 8 8 7 7 6 8 8 8 10 11 11 10 10 9 8 7 7 7 5 6 7 9 9 8 6 6 5 4 7 6 6 6 6

GFSMA_con_lsi_015.txt.gz
Lid_Strength_Index
1 1 1 1 2 3 2 3 3 4 4 4 4 3 3 3 3 3 3 -1 -1 -1 0 -1 -1 -1 -1 -1 -0 -0 -1 -1 -1 -1 -1 -1 -1 -2 -1 -1 -1 -2 -2
1 2 3 3 3 3 3 3 3 4 4 3 3 3 3 4 4 4 4 3 -1 -2 -1 -0 0 0 0 0 1 1 1 0 0 0 -0 -0 -0 -0 -0 -1 -1 -1 -1
3 3 3 3 2 3 3 3 3 3 3 3 4 3 4 4 4 5 4 4 1 -1 -1 0 1 1 1 1 1 1 1 1 1 1 1 1 1 1 1 1 0 -1 -1
2 2 2 3 3 3 3 3 3 3 4 4 4 5 5 5 5 5 5 5 5 2 0 -0 1 2 2 2 2 2 2 2 1 1 1 1 1 2 1 1 1 1 0
2 2 3 3 3 3 3 3 4 4 5 5 5 6 6 6 6 5 6 6 6 5 3 0 1 1 3 3 3 3 2 2 2 2 2 2 2 3 3 2 2 2 1
3 3 3 3 3 4 4 4 5 5 5 6 5 6 7 7 7 7 7 6 7 7 6 6 6 5 3 4 4 3 3 3 3 2 3 3 3 3 3 3 3 2 2
3 4 4 4 4 5 5 5 5 6 6 6 8 8 8 8 8 8 8 8 7 7 6 7 6 7 7 5 5 5 4 4 4 4 4 4 4 4 3 4 3 3 3
4 3 5 5 5 5 5 6 6 7 7 7 9 10 11 10 8 8 9 8 9 8 7 6 7 8 9 9 8 6 6 6 5 5 5 5 5 5 4 3 3 3 3
7 7 7 7 7 6 6 6 7 7 8 8 8 9 12 13 12 10 10 10 10 9 8 8 7 7 8 8 7 6 5 5 5 5 5 5 5 5 4 4 4 3 3
7 7 7 7 7 7 8 7 5 7 8 9 9 8 9 10 13 13 11 10 9 8 9 8 7 7 6 7 5 4 3 5 6 5 5 4 4 5 5 4 4 4 3
7 7 7 8 7 7 7 6 7 8 8 9 9 9 10 10 11 12 13 12 10 9 8 8 7 7 5 6 6 5 1 3 3 4 3 3 4 4 4 4 4 4 3
8 7 7 7 7 7 6 7 7 7 7 8 7 8 9 11 11 12 13 12 12 10 8 7 6 6 5 5 2 0 0 1 1 2 2 2 2 2 3 3 4 4 3
8 8 8 8 7 6 6 7 7 7 8 8 8 9 9 9 9 10 11 12 12 10 9 7 5 5 4 4 4 1 1 1 1 2 2 2 2 2 2 2 2 3 3
9 9 8 8 7 6 7 7 7 7 7 8 8 8 9 9 9 9 10 12 12 11 9 7 5 5 4 5 3 1 4 2 2 2 3 3 3 2 2 2 1 2 1
8 8 8 8 8 7 7 7 8 8 8 8 9 9 8 9 9 9 9 9 10 11 10 8 7 5 5 5 4 4 5 3 2 2 3 3 3 2 2 2 2 1 1
9 8 9 8 8 8 8 7 8 8 9 8 8 9 8 8 8 8 9 8 8 9 11 8 7 7 6 5 4 5 5 3 3 3 3 2 2 2 2 2 2 2 2
8 9 8 8 8 8 9 9 9 9 9 10 9 9 9 8 9 8 8 8 8 8 11 9 8 8 8 8 7 6 5 6 5 3 2 2 2 2 2 1 1 1 2
8 9 8 8 8 8 8 9 9 9 9 9 9 9 9 7 9 9 9 9 9 9 10 12 10 9 9 8 8 8 6 5 5 4 2 2 2 2 1 1 1 1 1
9 8 8 8 8 8 8 8 9 9 9 8 9 10 9 9 10 9 9 10 10 8 10 11 11 10 10 9 9 8 7 6 5 3 3 3 2 2 2 2 1 1 1
8 8 8 7 7 8 8 8 9 9 9 10 9 9 9 9 9 9 9 10 9 10 11 11 11 11 10 9 9 9 9 7 7 5 4 3 3 2 3 2 2 1 1
8 8 8 8 8 8 7 9 9 10 10 10 9 8 8 7 5 7 9 10 10 11 11 11 11 11 10 10 10 8 9 9 8 8 7 7 6 5 4 3 3 2 2
8 8 9 8 8 7 9 8 10 12 10 9 9 9 8 6 5 5 6 6 7 11 11 12 11 11 10 10 8 10 10 11 12 9 10 9 7 7 5 4 3 3 2
8 8 8 8 8 8 9 9 10 11 10 9 9 9 8 6 7 8 8 8 8 7 8 10 11 11 11 10 9 10 10 11 11 10 10 10 9 8 4 3 2 2 1
8 8 8 8 8 8 9 8 9 10 9 8 8 8 8 9 8 8 9 10 10 10 9 9 11 11 10 9 9 9 9 9 10 9 9 11 9 7 4 3 1 -0 -0
8 8 8 8 8 10 8 8 9 9 8 8 7 7 7 9 7 7 9 10 10 10 8 7 7 7 6 6 6 7 9 9 11 10 9 9 8 8 5 4 4 1 -0
8 8 8 8 9 9 7 7 7 10 9 9 8 8 6 8 7 7 9 10 11 11 10 10 9 8 7 7 6 7 8 9 9 10 8 8 7 6 7 6 6 6 6

GFSMA_con_lsi_018.txt.gz
Lid_Strength_Index
2 2 3 3 4 4 4 4 4 4 4 4 4 4 5 5 6 5 5 -0 -1 -1 -1 -2 -1 -1 -0 -0 -0 -0 0 0 0 -0 -0 -0 -0 -0 -0 -0 -0 -1 -1
3 2 4 4 4 4 4 4 4 4 5 4 4 5 5 6 6 6 6 6 -0 -2 -2 -1 0 0 0 0 0 1 1 1 0 0 1 1 1 1 1 1 1 0 -0
4 3 4 4 3 4 4 4 4 4 4 4 5 5 6 6 6 6 6 5 4 -1 -1 1 1 1 1 1 2 2 1 1 1 1 1 1 1 2 2 2 2 1 1
2 3 3 4 4 4 4 4 4 5 5 5 6 7 7 6 7 7 7 7 7 4 2 1 1 2 2 2 2 2 2 2 2 2 2 2 2 2 2 3 2 2 1
2 3 4 4 4 4 4 4 5 5 5 6 6 8 7 8 8 7 7 8 7 7 6 2 3 3 4 4 4 3 3 3 3 3 3 3 3 3 3 3 3 3 2
2 3 4 4 4 4 5 5 6 6 6 6 6 7 9 8 8 9 9 8 8 8 7 7 8 6 3 4 5 4 4 4 3 4 4 4 4 4 4 4 4 3 3
4 4 5 5 5 5 6 5 6 7 7 8 9 9 9 9 9 9 9 9 9 8 8 7 7 8 7 4 4 4 4 5 5 5 5 4 5 4 4 4 4 4 3
4 5 6 7 7 6 6 7 7 8 7 8 9 11 12 10 9 9 9 9 10 9 8 8 8 8 8 9 6 3 4 5 5 5 5 5 5 5 5 4 4 4 3
7 7 7 8 8 8 8 8 7 8 9 9 10 10 12 13 12 10 10 10 10 9 9 9 8 8 8 9 7 6 4 5 5 5 5 5 5 5 5 5 5 4 3
7 7 7 8 8 7 8 8 7 8 9 10 10 9 10 10 13 14 12 11 10 10 10 10 9 9 8 9 7 4 2 3 4 4 3 4 4 4 5 5 5 5 4
7 7 8 7 8 7 7 8 8 9 9 9 10 10 11 12 12 14 15 13 12 11 10 10 10 10 9 8 8 5 1 2 3 3 2 2 2 3 3 4 4 4 4
8 8 8 8 8 8 8 8 8 8 9 9 9 10 11 12 13 13 14 14 14 12 11 10 10 9 8 7 4 2 2 2 3 2 2 2 2 2 2 3 3 4 4
10 10 9 9 8 7 8 8 8 8 9 9 10 10 10 11 11 11 12 13 14 13 12 11 9 8 6 6 5 2 2 2 3 3 2 2 2 2 2 2 2 2 3
9 9 9 8 8 7 7 8 8 9 9 9 9 9 10 11 10 11 12 13 14 14 13 11 9 7 6 6 4 2 5 3 3 3 3 3 3 2 2 2 2 1 2
9 8 9 8 9 9 8 8 9 9 9 9 10 10 10 11 11 11 10 11 13 16 14 12 10 7 6 6 5 6 6 4 4 4 4 3 3 3 3 2 2 1 1
8 9 8 9 9 9 9 9 9 9 10 10 10 10 11 10 9 10 11 10 11 12 14 11 10 8 8 6 6 7 7 5 5 4 4 4 3 3 3 3 2 2 2
8 8 8 9 8 9 9 9 9 10 10 10 10 10 10 9 10 10 11 11 11 12 13 11 9 9 10 9 8 8 7 8 7 5 4 4 4 3 3 3 3 2 2
8 8 9 8 8 9 8 9 9 9 9 10 9 9 9 8 10 11 11 12 11 11 11 12 11 10 10 10 9 10 8 6 7 5 4 4 4 3 3 3 3 2 2
8 9 9 9 9 8 8 8 9 9 9 9 8 9 9 10 11 11 11 11 10 9 10 11 11 10 10 10 10 9 9 9 6 5 5 5 3 4 4 3 3 2 2
10 9 9 8 8 8 8 8 9 10 10 9 9 10 10 10 10 11 10 11 10 10 10 11 11 10 10 10 10 11 9 8 8 7 6 6 5 5 4 4 3 2 1
9 8 9 8 8 8 8 9 9 10 10 10 10 9 9 8 6 8 9 10 10 10 11 11 11 11 11 11 11 10 10 10 9 9 9 8 8 8 7 5 4 3 2
8 8 8 8 8 8 8 8 9 10 10 10 10 9 9 7 6 5 6 6 8 10 11 12 11 12 12 12 11 11 11 11 12 9 10 10 9 9 8 7 4 4 4
7 7 8 8 8 8 8 7 8 11 10 9 9 9 8 7 7 8 7 7 8 7 8 10 12 12 12 11 11 10 10 10 11 9 10 10 10 10 8 6 5 4 4
8 9 9 8 8 8 7 7 8 9 9 8 9 9 9 9 9 8 9 9 9 9 9 9 10 11 10 9 9 8 8 8 9 9 9 11 10 11 9 7 5 4 3
9 9 8 8 8 8 8 7 8 9 8 8 8 8 8 9 7 6 8 9 10 9 8 7 7 7 6 6 6 7 9 10 11 10 9 9 11 11 10 8 6 2 2
9 8 8 8 7 9 6 6 7 9 9 9 8 8 7 8 6 6 9 10 11 10 10 9 9 8 8 8 6 8 9 10 10 11 9 9 9 10 10 7 6 6 5